Regional Weather Roundup
Issued by NWS

Home | Current Version | Previous Version | Graphics & Text | Print | Product List | Glossary On
Versions: 1 2 3 4 5 6 7 8 9 10 11 12 13 14 15 16 17 18 19 20 21 22 23 24 25 26 27 28 29 30 31 32 33 34 35 36 37 38 39 40 41 42 43 44 45 46 47 48 49 50
913
ASUS45 KCYS 212310
RWRWY

WYOMING REGIONAL WEATHER ROUNDUP
NATIONAL WEATHER SERVICE CHEYENNE WY
500 PM MDT MON AUG 21 2017

NOTE:  "FAIR" INDICATES FEW OR NO CLOUDS BELOW 12,000 FEET
WITH NO SIGNIFICANT WEATHER AND/OR OBSTRUCTIONS TO VISIBILITY.

WYZ001-220000-
YELLOWSTONE NATIONAL PARK

CITY           SKY/WX    TMP DP  RH WIND       PRES   REMARKS
LK YELLOWSTONE   N/A     67  39  35 VRB3      30.37S
W YELLOWSTONE  NOT AVBL

$$
WYZ002>013-054>058-071-098>099-220000-
NORTHERN WYOMING

CITY           SKY/WX    TMP DP  RH WIND       PRES   REMARKS
JACKSON        FAIR      79  23  12 SW9       30.26S
CODY           FAIR      74  39  28 N10       30.21S
GREYBULL       FAIR      85  27  12 MISG      30.11S
WORLAND        FAIR      83  37  19 N5        30.12F
SHERIDAN       FAIR      80  31  16 CALM      30.17S
BUFFALO        FAIR      78  30  17 NW3       30.23S
GILLETTE       FAIR      78  31  17 VRB6      30.18S
HULETT         FAIR      75  34  22 NE8       30.20S
NEWCASTLE      FAIR      79  28  15 N15G23    30.16S

$$
WYZ014>020-022>026-101>103-220000-
CENTRAL WYOMING

CITY           SKY/WX    TMP DP  RH WIND       PRES   REMARKS
BIG PINEY      FAIR      81  27  14 NW15      30.28F
PINEDALE       FAIR      79  27  14 NW16G23   30.29S
DUBOIS         FAIR      77   7   6 W18       30.27S
LANDER           N/A    N/A N/A N/A MISG      30.18R
RIVERTON       FAIR      82  34  17 E10G18    30.17S
CASPER         FAIR      81  35  19 E7        30.19F
DOUGLAS        FAIR      78  37  22 E6        30.20S

$$
WYZ021-027>030-104>119-220000-
SOUTHERN WYOMING

CITY           SKY/WX    TMP DP  RH WIND       PRES   REMARKS
EVANSTON       PTSUNNY   78  34  20 N21G33    30.31S
KEMMERER         N/A    N/A N/A N/A W14G21    30.31F
FORT BRIDGER   FAIR      81  29  14 NW17      30.31S
ROCK SPRINGS   FAIR      82  26  13 W9        30.26S
RAWLINS        FAIR      82  29  14 SW9       30.25S
SARATOGA       FAIR      77  32  19 NW6       30.28F
LARAMIE        FAIR      80  31  16 N15       30.28S
CHEYENNE       FAIR      77  38  24 E13G21    30.24S
TORRINGTON     FAIR      82  48  30 E14       30.13R
PINE BLUFFS    FAIR      79  45  29 NE13G21   30.19S

$$




USA.gov is the U.S. government's official web portal to all federal, state and local government web resources and services.